Time,TemperatureF,DewpointF,PressureIn,WindDirection,WindDirectionDegrees,WindSpeedMPH,WindSpeedGustMPH,Humidity,HourlyPrecipIn,Conditions,Clouds,dailyrainin,SoftwareType,DateUTC
2013-08-05 00:02:00,76.0,-99.9,-100.00,ENE,69,4.0,4.0,-999,-99.99,,,-99.99,,2013-08-05 06:02:00,
2013-08-05 00:12:00,76.0,-99.9,-100.00,ENE,69,4.0,4.0,-999,-99.99,,,-99.99,,2013-08-05 06:12:00,
2013-08-05 00:22:00,76.0,-99.9,-100.00,ENE,69,4.0,4.0,-999,-99.99,,,-99.99,,2013-08-05 06:22:00,
2013-08-05 00:43:00,76.0,-99.9,-100.00,ENE,72,2.0,3.0,-999,-99.99,,,-99.99,,2013-08-05 06:43:00,
2013-08-05 00:52:00,76.0,-99.9,-100.00,ENE,72,3.0,3.0,-999,-99.99,,,-99.99,,2013-08-05 06:52:00,
2013-08-05 01:02:00,76.0,-99.9,-100.00,ENE,72,3.0,3.0,-999,-99.99,,,-99.99,,2013-08-05 07:02:00,
2013-08-05 03:20:00,74.0,-99.9,-100.00,WNW,287,1.0,2.0,-999,-99.99,,,-99.99,,2013-08-05 09:20:00,
2013-08-05 04:12:00,74.0,-99.9,-100.00,WNW,287,1.0,2.0,-999,-99.99,,,-99.99,,2013-08-05 10:12:00,
2013-08-05 04:19:00,74.0,-99.9,-100.00,WNW,287,1.0,2.0,-999,-99.99,,,-99.99,,2013-08-05 10:19:00,
2013-08-05 05:15:00,72.0,-99.9,-100.00,East,84,2.0,3.0,-999,-99.99,,,-99.99,,2013-08-05 11:15:00,
2013-08-05 06:10:00,72.0,-99.9,-100.00,East,84,2.0,3.0,-999,-99.99,,,-99.99,,2013-08-05 12:10:00,
2013-08-05 07:30:00,73.0,-99.9,-100.00,East,90,7.0,9.0,-999,-99.99,,,-99.99,,2013-08-05 13:30:00,
2013-08-05 08:20:00,73.0,-99.9,-100.00,East,81,7.0,9.0,-999,-99.99,,,-99.99,,2013-08-05 14:20:00,
2013-08-05 09:08:00,73.0,-99.9,-100.00,East,81,7.0,9.0,-999,-99.99,,,-99.99,,2013-08-05 15:08:00,
2013-08-05 09:18:00,73.0,-99.9,-100.00,East,81,7.0,9.0,-999,-99.99,,,-99.99,,2013-08-05 15:18:00,
2013-08-05 10:15:00,80.0,-99.9,-100.00,ESE,106,3.0,6.0,-999,-99.99,,,-99.99,,2013-08-05 16:15:00,
2013-08-05 10:18:00,76.0,-99.9,-100.00,East,88,3.0,7.0,-999,-99.99,,,-99.99,,2013-08-05 16:18:00,
2013-08-05 13:15:00,87.0,-99.9,-100.00,East,85,2.0,3.0,-999,-99.99,,,-99.99,,2013-08-05 19:15:00,
2013-08-05 14:20:00,90.0,-99.9,-100.00,NNE,27,2.0,5.0,-999,-99.99,,,-99.99,,2013-08-05 20:20:00,
2013-08-05 15:04:00,88.0,-99.9,-100.00,WNW,297,3.0,5.0,-999,-99.99,,,-99.99,,2013-08-05 21:04:00,
2013-08-05 15:12:00,90.0,-99.9,-100.00,NNE,27,2.0,5.0,-999,-99.99,,,-99.99,,2013-08-05 21:12:00,
2013-08-05 17:10:00,89.0,-99.9,-100.00,North,354,5.0,6.0,-999,-99.99,,,-99.99,,2013-08-05 23:10:00,
2013-08-05 18:02:00,89.0,-99.9,-100.00,North,354,5.0,6.0,-999,-99.99,,,-99.99,,2013-08-06 00:02:00,
2013-08-05 19:10:00,83.0,-99.9,-100.00,NE,38,4.0,6.0,-999,-99.99,,,-99.99,,2013-08-06 01:10:00,
2013-08-05 20:04:00,83.0,-99.9,-100.00,NE,38,4.0,6.0,-999,-99.99,,,-99.99,,2013-08-06 02:04:00,